FW8327 Weather Reports


time (UTC)temp
C
wind
direction
speed
KPH
gust
KPH
rain 1hr
cm
rain 24hr
cm
rain mn
cm
humidity
%
barometer
mb
20260509064718 11 157 0.0 0.0 0.00 0.00 0.00 99 1006.4
20260509064216 11 156 0.0 0.0 0.00 0.00 0.00 99 1006.3
20260509063713 11 180 0.0 0.0 0.00 0.00 0.00 99 1006.4
20260509063209 11 161 0.0 0.0 0.00 0.00 0.00 99 1006.5
20260509062707 11 210 0.0 0.0 0.00 0.00 0.00 99 1006.2
20260509062204 11 153 0.0 0.0 0.00 0.00 0.00 99 1006.5
20260509061701 11 167 0.0 0.0 0.00 0.00 0.00 99 1006.5
20260509061158 11 159 0.0 0.0 0.00 0.00 0.00 99 1006.6
20260509060655 11 161 0.0 0.0 0.00 0.00 0.00 99 1006.7
20260509060151 11 151 0.0 0.0 0.00 0.00 0.00 99 1006.8
20260509055647 11 159 0.0 0.0 0.00 0.00 0.00 99 1006.6
20260509055143 11 141 0.0 0.0 0.00 0.00 0.00 99 1006.8
20260509054640 11 166 0.0 0.0 0.00 0.00 0.00 99 1006.8
20260509054138 11 148 0.0 0.0 0.00 0.00 0.00 99 1006.8
20260509053636 11 176 0.0 0.0 0.00 0.00 0.00 99 1006.7
20260509053133 11 162 0.0 0.0 0.00 0.00 0.00 99 1006.9
20260509052631 11 151 0.0 0.0 0.00 0.00 0.00 99 1006.9
20260509052128 11 164 0.0 0.0 0.00 0.00 0.00 99 1006.8
20260509051626 11 164 0.0 0.0 0.00 0.00 0.00 99 1007.0
20260509051123 11 166 0.0 0.0 0.00 0.00 0.00 99 1006.9
20260509050620 11 161 0.0 0.0 0.00 0.00 0.00 99 1007.0
20260509050116 11 172 0.0 0.0 0.00 0.00 0.00 99 1006.7
20260509045614 11 159 0.0 0.0 0.00 0.00 0.00 99 1006.8
20260509045110 11 154 0.0 0.0 0.00 0.00 0.00 99 1006.8
20260509044608 11 167 0.0 0.0 0.00 0.00 0.00 99 1006.7
20260509044105 11 165 0.0 0.0 0.00 0.00 0.00 99 1006.8
20260509043601 11 144 0.0 0.0 0.00 0.00 0.00 99 1006.7
20260509043057 11 159 0.0 0.0 0.00 0.00 0.00 99 1006.8
20260509042553 11 163 0.0 0.0 0.00 0.00 0.00 99 1006.9
20260509042049 11 154 0.0 0.0 0.00 0.00 0.00 99 1006.9
20260509041546 11 175 0.0 0.0 0.00 0.00 0.00 99 1007.1
20260509041044 11 154 0.0 0.0 0.00 0.00 0.00 99 1006.7
20260509040542 11 166 0.0 0.0 0.00 0.00 0.00 99 1006.9
20260509040039 11 169 0.0 0.0 0.00 0.00 0.00 99 1006.9
20260509035536 11 173 0.0 0.0 0.00 0.00 0.00 99 1007.0
20260509035032 11 167 0.0 0.0 0.00 0.00 0.00 99 1006.7
20260509034531 11 160 0.0 0.0 0.00 0.00 0.00 99 1006.7
20260509034027 11 170 0.0 0.0 0.00 0.00 0.00 99 1006.8
20260509033524 11 174 0.0 0.0 0.00 0.00 0.00 99 1006.9
20260509033021 11 163 0.0 0.0 0.00 0.00 0.00 99 1006.9
20260509032518 11 159 0.0 0.0 0.00 0.00 0.00 99 1006.9
20260509032015 11 160 0.0 0.0 0.00 0.00 0.00 99 1006.8
20260509031513 11 160 0.0 0.0 0.00 0.00 0.00 99 1006.9
20260509031010 11 160 0.0 0.0 0.00 0.00 0.00 99 1006.8
20260509030508 11 159 0.0 0.0 0.00 0.00 0.00 99 1006.9
20260509030005 11 159 0.0 0.0 0.00 0.00 0.00 99 1007.1
20260509025500 11 156 0.0 0.0 0.00 0.00 0.00 99 1007.1
20260509024950 11 157 0.0 0.0 0.00 0.00 0.00 99 1007.1
20260509024447 11 161 0.0 0.0 0.00 0.00 0.00 99 1007.1
20260509023943 11 161 0.0 0.0 0.00 0.00 0.00 99 1007.1
20260509023441 12 161 0.0 0.0 0.00 0.00 0.00 99 1007.3
20260509022937 12 163 0.0 0.0 0.00 0.00 0.00 99 1007.0
20260509022435 12 156 0.0 0.0 0.00 0.00 0.00 99 1007.2
20260509021932 12 168 0.0 0.0 0.00 0.00 0.00 99 1007.4
20260509021428 12 164 0.0 0.0 0.00 0.00 0.00 99 1007.1
20260509020926 12 164 0.0 0.0 0.00 0.00 0.00 99 1007.1
20260509020424 12 171 0.0 0.0 0.00 0.00 0.00 99 1007.1
20260509015921 12 160 0.0 0.0 0.00 0.00 0.00 99 1007.0
20260509015420 12 159 0.0 0.0 0.00 0.00 0.00 99 1007.0
20260509014915 12 174 0.0 0.0 0.00 0.00 0.00 99 1007.1
20260509014407 12 179 0.0 0.0 0.00 0.00 0.00 99 1006.8
20260509013903 12 157 0.0 0.0 0.00 0.00 0.00 99 1006.9
20260509013401 12 156 0.0 0.0 0.00 0.00 0.00 99 1006.9
20260509012856 12 178 0.0 0.0 0.00 0.00 0.00 99 1007.1
20260509012353 12 177 0.0 0.0 0.00 0.00 0.00 99 1006.9
20260509011850 12 173 0.0 0.0 0.00 0.00 0.00 99 1006.8
20260509011348 12 170 0.0 0.0 0.00 0.00 0.00 99 1006.7
20260509010846 12 165 0.0 0.0 0.00 0.00 0.00 99 1006.8
20260509010343 12 170 0.0 0.0 0.00 0.00 0.00 99 1006.9
20260509005839 12 164 0.0 0.0 0.00 0.00 0.00 99 1007.1
20260509005337 12 162 0.0 0.0 0.00 0.00 0.00 99 1007.2
20260509004832 12 157 0.0 0.0 0.00 0.00 0.00 99 1006.9
20260509004328 12 147 0.0 0.0 0.00 0.00 0.00 99 1007.0
20260509003826 12 168 0.0 0.0 0.00 0.00 0.00 99 1007.0
20260509003324 12 165 0.0 0.0 0.00 0.00 0.00 99 1006.9
20260509002821 12 166 0.0 0.0 0.00 0.00 0.00 99 1006.9
20260509002318 12 169 0.0 0.0 0.00 0.00 0.00 99 1007.0
20260509001816 12 156 0.0 0.0 0.00 0.00 0.00 99 1006.9
20260509001311 12 156 0.0 0.0 0.00 0.00 0.00 99 1007.0
20260509000809 12 160 0.0 0.0 0.00 0.00 0.00 99 1007.2
20260509000307 12 161 0.0 0.0 0.00 0.00 0.00 99 1007.3
20260508235802 12 156 0.0 0.0 0.00 0.00 0.00 99 1007.3
20260508235259 12 157 0.0 0.0 0.00 0.00 0.00 99 1007.4
20260508234756 12 163 0.0 0.0 0.00 0.00 0.00 99 1007.3
20260508234253 12 169 0.0 0.0 0.00 0.00 0.00 99 1007.5
20260508233747 12 162 0.0 0.0 0.00 0.00 0.00 99 1007.3
20260508233245 12 160 0.0 0.0 0.00 0.00 0.00 99 1007.3
20260508232742 12 161 0.0 0.0 0.00 0.00 0.00 99 1007.4
20260508232238 12 165 0.0 0.0 0.00 0.00 0.00 99 1007.3
20260508231736 12 147 0.0 0.0 0.00 0.00 0.00 99 1007.3
20260508231232 12 215 0.0 0.0 0.00 0.00 0.00 99 1007.6
20260508230730 12 153 0.0 0.0 0.00 0.00 0.00 99 1007.4
20260508230225 12 160 0.0 0.0 0.00 0.00 0.00 99 1007.2
20260508225724 12 169 0.0 0.0 0.00 0.00 0.00 99 1007.4
20260508225220 12 167 0.0 0.0 0.00 0.00 0.00 99 1007.3
20260508224718 12 158 0.0 0.0 0.00 0.00 0.00 99 1007.5
20260508224215 12 157 0.0 0.0 0.00 0.00 0.00 99 1007.3
20260508223713 12 160 0.0 0.0 0.00 0.00 0.00 99 1007.3
20260508223210 12 165 0.0 0.0 0.00 0.00 0.00 99 1007.5
20260508222707 12 172 0.0 0.0 0.00 0.00 0.00 99 1007.4
20260508222204 12 162 0.0 0.0 0.00 0.00 0.00 99 1007.4
20260508221700 12 202 0.0 0.0 0.00 0.00 0.00 99 1007.6
20260508221156 12 210 0.0 0.0 0.00 0.00 0.00 99 1007.6
20260508220653 12 135 0.0 0.0 0.00 0.00 0.00 99 1007.2
20260508220150 12 153 0.0 0.0 0.00 0.00 0.00 99 1007.3
20260508215646 12 160 0.0 0.0 0.00 0.00 0.00 99 1007.3
20260508215143 12 166 0.0 0.0 0.00 0.00 0.00 99 1007.4
20260508214640 12 150 0.0 0.0 0.00 0.00 0.00 99 1007.4
20260508214137 12 136 0.0 0.0 0.00 0.00 0.00 99 1007.6
20260508213634 12 156 0.0 0.0 0.00 0.00 0.00 99 1007.4
20260508213130 12 201 0.0 0.0 0.00 0.00 0.00 99 1007.5
20260508212626 12 178 0.0 0.0 0.00 0.00 0.00 99 1007.6
20260508212123 12 176 0.0 0.0 0.00 0.00 0.00 98 1007.8
20260508211618 13 168 0.0 0.0 0.00 0.00 0.00 98 1007.9
20260508211115 13 244 0.0 0.0 0.00 0.00 0.00 98 1007.9
20260508210611 13 248 0.0 0.0 0.00 0.00 0.00 97 1007.8
20260508210109 13 188 0.0 0.0 0.00 0.00 0.00 97 1008.0
20260508205606 13 248 0.0 0.0 0.00 0.00 0.00 96 1008.0
20260508205102 13 250 0.0 0.0 0.00 0.00 0.00 96 1008.1
20260508204559 13 261 1.6 1.6 0.00 0.00 0.00 96 1008.0
20260508204055 13 256 0.0 0.0 0.00 0.00 0.00 95 1008.0
20260508203551 13 273 0.0 0.0 0.00 0.00 0.00 95 1008.1
20260508203047 13 281 0.0 1.6 0.00 0.00 0.00 94 1008.0
20260508202544 13 266 0.0 0.0 0.00 0.00 0.00 93 1008.3
20260508202041 13 261 0.0 0.0 0.00 0.00 0.00 93 1008.3
20260508201538 13 261 0.0 0.0 0.00 0.00 0.00 94 1008.2
20260508201034 13 264 0.0 0.0 0.00 0.00 0.00 94 1008.2
20260508200532 13 229 0.0 0.0 0.00 0.00 0.00 93 1008.3
20260508200027 13 247 0.0 1.6 0.00 0.00 0.00 93 1008.2
20260508195524 13 168 0.0 0.0 0.00 0.00 0.00 92 1008.3
20260508195020 13 262 0.0 0.0 0.00 0.00 0.00 90 1008.7
20260508194517 13 245 3.2 3.2 0.00 0.00 0.00 88 1008.7
20260508194015 14 262 6.4 12.9 0.00 0.00 0.00 85 1008.9
20260508193510 15 272 0.0 1.6 0.00 0.00 0.00 84 1008.8
20260508193008 15 256 0.0 1.6 0.00 0.00 0.00 81 1008.8
20260508192504 15 209 0.0 0.0 0.00 0.00 0.00 78 1008.7
20260508192001 15 198 0.0 0.0 0.00 0.00 0.00 77 1008.5
20260508191458 16 257 0.0 0.0 0.00 0.00 0.00 74 1008.6
20260508190955 16 164 0.0 0.0 0.00 0.00 0.00 71 1008.5
20260508190452 16 153 0.0 0.0 0.00 0.00 0.00 67 1008.5
20260508185948 16 169 0.0 0.0 0.00 0.00 0.00 67 1008.8
20260508185446 16 217 0.0 1.6 0.00 0.00 0.00 68 1008.7
20260508184943 16 148 0.0 0.0 0.00 0.00 0.00 67 1008.5
20260508184441 17 209 0.0 0.0 0.00 0.00 0.00 66 1008.8
20260508183937 17 260 1.6 3.2 0.00 0.00 0.00 65 1008.8
20260508183433 17 246 1.6 3.2 0.00 0.00 0.00 66 1008.7
20260508182928 17 237 0.0 0.0 0.00 0.00 0.00 66 1008.8
20260508182426 17 205 0.0 0.0 0.00 0.00 0.00 65 1008.9
20260508181921 17 238 1.6 4.8 0.00 0.00 0.00 64 1008.9
20260508181418 17 171 0.0 1.6 0.00 0.00 0.00 64 1008.8
20260508180915 17 216 0.0 0.0 0.00 0.00 0.00 64 1008.8
20260508180412 17 202 1.6 6.4 0.00 0.00 0.00 63 1008.8
20260508175908 17 155 0.0 0.0 0.00 0.00 0.00 63 1008.9
20260508175405 18 245 1.6 3.2 0.00 0.00 0.00 60 1008.8
20260508174903 18 256 1.6 4.8 0.00 0.00 0.00 62 1008.9
20260508174400 18 220 0.0 0.0 0.00 0.00 0.00 62 1008.9
20260508173856 18 129 0.0 0.0 0.00 0.00 0.00 60 1009.0
20260508173353 18 253 0.0 1.6 0.00 0.00 0.00 61 1008.8
20260508172849 18 239 0.0 1.6 0.00 0.00 0.00 62 1008.9
20260508172347 19 264 0.0 1.6 0.00 0.00 0.00 60 1008.7
20260508171843 19 165 0.0 0.0 0.00 0.00 0.00 62 1009.0
20260508171339 20 216 1.6 3.2 0.00 0.00 0.00 59 1009.3
20260508170836 19 209 0.0 0.0 0.00 0.00 0.00 61 1009.3
20260508170334 18 201 0.0 0.0 0.00 0.00 0.00 63 1009.4
20260508165831 18 164 0.0 0.0 0.00 0.00 0.00 63 1009.4
20260508165328 17 106 0.0 1.6 0.00 0.00 0.00 63 1009.8
20260508164824 17 292 0.0 1.6 0.00 0.00 0.00 63 1009.8
20260508164321 17 205 0.0 0.0 0.00 0.00 0.00 64 1009.8
20260508163819 17 121 0.0 0.0 0.00 0.00 0.00 65 1010.1
20260508163316 17 140 0.0 0.0 0.00 0.00 0.00 65 1010.2
20260508162812 17 161 0.0 0.0 0.00 0.00 0.00 64 1010.3
20260508162309 17 157 0.0 0.0 0.00 0.00 0.00 66 1010.2
20260508161806 17 132 0.0 0.0 0.00 0.00 0.00 64 1010.1
20260508161303 17 211 0.0 0.0 0.00 0.00 0.00 65 1010.3
20260508160801 17 196 0.0 0.0 0.00 0.00 0.00 67 1010.3
20260508160259 16 158 0.0 0.0 0.00 0.00 0.00 65 1010.5
20260508155755 16 201 0.0 0.0 0.00 0.00 0.00 65 1010.4
20260508155252 16 167 0.0 0.0 0.00 0.00 0.00 65 1010.5
20260508154749 16 262 0.0 0.0 0.00 0.00 0.00 66 1010.4
20260508154247 16 139 0.0 0.0 0.00 0.00 0.00 67 1010.5
20260508153743 16 184 0.0 0.0 0.00 0.00 0.00 65 1010.4
20260508153241 16 196 0.0 0.0 0.00 0.00 0.00 66 1010.4
20260508152737 16 202 0.0 0.0 0.00 0.00 0.00 67 1010.5
20260508152233 16 152 0.0 0.0 0.00 0.00 0.00 68 1010.5
20260508151729 16 150 0.0 0.0 0.00 0.00 0.00 67 1010.4
20260508151226 15 158 0.0 0.0 0.00 0.00 0.00 68 1010.6
20260508150723 15 196 0.0 0.0 0.00 0.00 0.00 68 1010.7
20260508150219 15 221 0.0 0.0 0.00 0.00 0.00 68 1010.7
20260508145715 15 245 0.0 0.0 0.00 0.00 0.00 68 1010.9
20260508145211 15 169 0.0 0.0 0.00 0.00 0.00 69 1011.0
20260508144709 15 261 0.0 0.0 0.00 0.00 0.00 68 1011.0
20260508144207 15 145 0.0 0.0 0.00 0.00 0.00 68 1011.0
20260508143704 15 209 0.0 1.6 0.00 0.00 0.00 68 1011.2
20260508143201 14 165 0.0 0.0 0.00 0.00 0.00 70 1011.2
20260508142657 14 232 0.0 0.0 0.00 0.00 0.00 69 1011.1
20260508142154 13 255 0.0 0.0 0.00 0.00 0.00 69 1011.0
20260508141650 13 147 0.0 0.0 0.00 0.00 0.00 70 1011.2
20260508141148 13 160 0.0 0.0 0.00 0.00 0.00 69 1011.2
20260508140645 13 175 0.0 0.0 0.00 0.00 0.00 70 1011.1
20260508140142 13 198 0.0 0.0 0.00 0.00 0.00 70 1011.4
20260508135638 12 257 1.6 3.2 0.00 0.00 0.00 71 1011.5
20260508135134 12 257 0.0 0.0 0.00 0.00 0.00 72 1011.7
20260508134630 12 235 0.0 0.0 0.00 0.00 0.00 71 1011.4
20260508134128 12 204 0.0 0.0 0.00 0.00 0.00 71 1011.5
20260508133624 12 222 0.0 0.0 0.00 0.00 0.00 72 1011.6
20260508133122 12 257 0.0 0.0 0.00 0.00 0.00 72 1011.8
20260508132619 12 197 0.0 0.0 0.00 0.00 0.00 73 1011.7
20260508132116 12 238 0.0 0.0 0.00 0.00 0.00 71 1011.6
20260508131612 11 153 0.0 0.0 0.00 0.00 0.00 75 1011.6
20260508131109 11 266 0.0 0.0 0.00 0.00 0.00 75 1011.5
20260508130605 11 251 0.0 0.0 0.00 0.00 0.00 73 1011.5
20260508125557 11 230 0.0 0.0 0.00 0.00 0.00 75 1011.8
20260508125055 11 190 0.0 0.0 0.00 0.00 0.00 77 1011.6
20260508124553 11 155 0.0 0.0 0.00 0.00 0.00 80 1011.5
20260508124050 11 158 0.0 0.0 0.00 0.00 0.00 81 1011.6
20260508123548 11 163 0.0 0.0 0.00 0.00 0.00 80 1011.8
20260508123045 11 156 0.0 0.0 0.00 0.00 0.00 82 1011.6
20260508122541 11 161 0.0 0.0 0.00 0.00 0.00 81 1011.4
20260508122038 10 156 0.0 0.0 0.00 0.00 0.00 80 1011.6
20260508121537 10 156 0.0 0.0 0.00 0.00 0.00 82 1011.4
20260508121034 10 153 0.0 0.0 0.00 0.00 0.00 83 1011.5
20260508120531 10 157 0.0 0.0 0.00 0.00 0.00 85 1011.3
20260508120030 9 155 0.0 0.0 0.00 0.00 0.00 87 1011.5
20260508115527 9 155 0.0 0.0 0.00 0.00 0.00 87 1011.5
20260508115023 9 153 0.0 0.0 0.00 0.00 0.00 86 1011.5
20260508114521 9 151 0.0 0.0 0.00 0.00 0.00 86 1011.4
20260508114017 9 157 0.0 0.0 0.00 0.00 0.00 86 1011.7
20260508113515 9 165 0.0 0.0 0.00 0.00 0.00 86 1011.8
20260508113012 9 165 0.0 0.0 0.00 0.00 0.00 86 1011.7
20260508112508 9 165 0.0 0.0 0.00 0.00 0.00 86 1011.4
20260508112005 9 166 0.0 0.0 0.00 0.00 0.00 86 1011.4
20260508111502 9 166 0.0 0.0 0.00 0.00 0.00 86 1011.3
20260508110959 9 167 0.0 0.0 0.00 0.00 0.00 85 1011.4
20260508110457 9 167 0.0 0.0 0.00 0.00 0.00 85 1011.4
20260508105956 9 167 0.0 0.0 0.00 0.00 0.00 84 1011.3
20260508105453 10 168 0.0 0.0 0.00 0.00 0.00 82 1011.2
20260508104950 10 172 0.0 0.0 0.00 0.00 0.00 80 1011.4
20260508104448 10 172 0.0 0.0 0.00 0.00 0.00 79 1011.2
20260508103944 10 176 0.0 0.0 0.00 0.00 0.00 79 1011.4
20260508103441 10 178 0.0 0.0 0.00 0.00 0.00 79 1011.4
20260508102938 10 172 0.0 0.0 0.00 0.00 0.00 79 1011.4
20260508102437 10 185 0.0 0.0 0.00 0.00 0.00 79 1011.3
20260508101933 10 182 0.0 0.0 0.00 0.00 0.00 79 1011.1
20260508101431 10 229 0.0 0.0 0.00 0.00 0.00 80 1011.4
20260508100928 10 228 0.0 0.0 0.00 0.00 0.00 78 1011.4
20260508100427 10 174 0.0 0.0 0.00 0.00 0.00 80 1011.2
20260508095922 10 267 0.0 0.0 0.00 0.00 0.00 81 1011.2
20260508095420 10 292 0.0 0.0 0.00 0.00 0.00 78 1011.3
20260508094917 10 244 0.0 0.0 0.00 0.00 0.00 78 1011.3
20260508094414 10 294 0.0 0.0 0.00 0.00 0.00 76 1011.3
20260508093910 10 262 0.0 0.0 0.00 0.00 0.00 76 1011.4
20260508093408 10 263 3.2 4.8 0.00 0.00 0.00 80 1011.5
20260508092905 10 276 1.6 3.2 0.00 0.00 0.00 83 1011.4
20260508092403 10 326 3.2 4.8 0.00 0.00 0.00 83 1011.3
20260508091902 9 205 0.0 0.0 0.00 0.00 0.00 83 1011.0
20260508091358 9 151 0.0 0.0 0.00 0.00 0.00 83 1010.6
20260508090855 9 168 0.0 0.0 0.00 0.00 0.00 81 1010.7
20260508090354 9 154 0.0 0.0 0.00 0.00 0.00 82 1011.0
20260508085849 9 146 0.0 0.0 0.00 0.00 0.00 84 1010.9
20260508085346 9 157 0.0 0.0 0.00 0.00 0.00 85 1011.0
20260508084842 9 158 0.0 0.0 0.00 0.00 0.00 85 1010.9
20260508084339 9 162 0.0 0.0 0.00 0.00 0.00 85 1011.0
20260508083837 9 173 0.0 0.0 0.00 0.00 0.00 85 1010.9
20260508083335 9 150 0.0 0.0 0.00 0.00 0.00 84 1011.1
20260508082834 9 161 0.0 0.0 0.00 0.00 0.00 83 1011.0
20260508082332 10 152 0.0 0.0 0.00 0.00 0.00 84 1011.0
20260508081829 10 158 0.0 0.0 0.00 0.00 0.00 83 1010.8
20260508081326 10 154 0.0 0.0 0.00 0.00 0.00 83 1011.3
20260508080823 10 248 0.0 0.0 0.00 0.00 0.00 83 1011.3
20260508080321 10 144 0.0 0.0 0.00 0.00 0.00 84 1011.3
20260508075817 10 167 0.0 0.0 0.00 0.00 0.00 84 1011.3
20260508075314 10 174 0.0 3.2 0.00 0.00 0.00 83 1011.1
20260508074812 10 209 0.0 0.0 0.00 0.00 0.00 84 1011.4
20260508074308 10 162 4.8 9.7 0.00 0.00 0.00 83 1011.3
20260508073806 10 198 0.0 1.6 0.00 0.00 0.00 78 1011.3
20260508073304 10 187 0.0 0.0 0.00 0.00 0.00 74 1011.5
20260508072759 10 248 3.2 4.8 0.00 0.00 0.00 73 1011.4
20260508072257 10 164 0.0 0.0 0.00 0.00 0.00 73 1011.6
20260508071754 10 206 0.0 0.0 0.00 0.00 0.00 71 1011.6
20260508071252 10 245 0.0 0.0 0.00 0.00 0.00 72 1011.5
20260508070749 10 235 1.6 3.2 0.00 0.00 0.00 72 1011.5
20260508070248 10 170 0.0 0.0 0.00 0.00 0.00 71 1011.5
20260508065744 10 229 0.0 0.0 0.00 0.00 0.00 72 1011.2
20260508065242 10 214 0.0 0.0 0.00 0.00 0.00 72 1011.3